Regional Weather Roundup
Issued by NWS Mt. Holly, NJ

Home | Current Version | Previous Version | Text Only | Print | Product List | Glossary On
Versions: 1 2 3 4 5 6 7 8 9 10 11 12 13 14 15 16 17 18 19 20 21 22 23 24 25 26 27 28 29 30 31 32 33 34 35 36 37 38 39 40 41 42 43 44 45 46 47 48 49 50
000
ASUS41 KPHI 272110
RWRPHI

REGIONAL WEATHER ROUNDUP
NATIONAL WEATHER SERVICE MOUNT HOLLY NJ
400 PM EST TUE JAN 27 2015

NOTE:  "FAIR" INDICATES FEW OR NO CLOUDS BELOW 12,000 FEET WITH NO
SIGNIFICANT WEATHER AND/OR OBSTRUCTIONS TO VISIBILITY.

 * = STATION DOES NOT REPORT PRECIPITATION (E.G. RAIN, SNOW, ETC.)
        OR FOG.

NJZ015>026-272200-
SOUTHERN NEW JERSEY

CITY           SKY/WX    TMP DP  RH WIND       PRES   REMARKS
POMONA         PTSUNNY   32  15  49 NW20      29.68R WCI  20
RIO GRANDE*    MOSUNNY   34  18  51 W16G23    29.68S WCI  23
MILLVILLE      MOSUNNY   33  13  43 NW10G21   29.70R WCI  25
MOUNT HOLLY    CLOUDY    30  13  49 VRB7G17   29.70R WCI  23
TRENTON        CLOUDY    30  16  56 NW10G21   29.67S WCI  21

$$
NJZ001>014-272200-
NORTHERN NEW JERSEY

CITY           SKY/WX    TMP DP  RH WIND       PRES   REMARKS
SUSSEX         PTSUNNY   24  14  65 VRB5G17   29.68S WCI  18
ANDOVER*         N/A     25  14  63 VRB3      29.68S
MORRISTOWN     PTSUNNY   27  18  69 N17G28    29.68S WCI  14
NEWARK         CLOUDY    28  18  66 NW14      29.67R WCI  17
TETERBORO      PTSUNNY   29  15  56 N10G21    29.66S WCI  20
CALDWELL       PTSUNNY   27  15  61 NW13G22   29.67S WCI  16
SOMERVILLE     CLOUDY    29  17  61 NW13G24   29.67S WCI  19
ALLAIRE*       CLOUDY    28  16  59 NW12      29.65S WCI  18
TOMS RIVER*    CLOUDY    28  18  64 NW9       29.67R WCI  20

$$
PAZ043-044-047-054-055-060>062-066>071-272200-
EASTERN PENNSYLVANIA

CITY           SKY/WX    TMP DP  RH WIND       PRES   REMARKS
PHILADELPHIA   PTSUNNY   34  11  38 NW22      29.72R WCI  22
NORTH PHILA    CLOUDY    32  10  40 NW15G21   29.72R WCI  22
BLUE BELL      CLOUDY    32  12  43 NW8       29.70S WCI  25
DOYLESTOWN     CLOUDY    28  13  53 NW13G18   29.68S WCI  17
POTTSTOWN      MOSUNNY   31  13  47 W14G21    29.73R WCI  21
LANCASTER      PTSUNNY   30  12  47 NW14      29.75S WCI  19
COATESVILLE    SUNNY     30  14  51 NW13G24   29.72S WCI  20
READING        MOSUNNY   30  13  49 NW16      29.74S WCI  19
ALLENTOWN      PTSUNNY   29   7  39 NW15      29.71S WCI  18
MOUNT POCONO   MOSUNNY   19   6  57 NW18G30   29.61F WCI   4
HAZLETON       MOSUNNY   23   7  50 NW17G28   29.72R WCI   9
WILKES BARRE   MOSUNNY   21   6  52 NW18G24   29.77R WCI   6

$$
DEZALL-MDZ008-012-015-019-020-272200-
DELAWARE AND EASTERN MARYLAND

CITY           SKY/WX    TMP DP  RH WIND       PRES   REMARKS
WILMINGTON     MOSUNNY   33  13  43 NW20      29.74R WCI  21
DOVER          MOSUNNY   33  20  57 NW17G23   29.73R WCI  22
GEORGETOWN     PTSUNNY   35  20  54 NW8G17    29.73R WCI  29
EASTON         MOSUNNY   37  25  60 NW18G26   29.79R WCI  27
PATUXENT       MOSUNNY   35  24  64 NW18G26   29.78R WCI  24
OCEAN CITY     CLOUDY    33  25  72 NW10G18   29.73R WCI  25
WALLOPS ISLAND CLOUDY    34  26  72 NW10      29.75R WCI  26
CAMBRIDGE      MOSUNNY   37  27  65 NW9G22    29.75S WCI  31
SALISBURY      MOSUNNY   37  25  61 NW12      29.73S WCI  29

$$
PAZ001-021-NYZ056-072-MDZ011-DCZ001-272200-
OTHER NEARBY LOCATIONS

CITY           SKY/WX    TMP DP  RH WIND       PRES   REMARKS
HARRISBURG     PTSUNNY   31  17  56 NW18      29.78S WCI  19
STATE COLLEGE  PTSUNNY   27  16  63 NW10      29.84R WCI  17
WILLIAMSPORT   CLOUDY    27   5  39 N13       29.85R WCI  16
BINGHAMTON     MOSUNNY   12   3  67 NW13      29.78R WCI  -3
NEW YORK CITY  PTSUNNY   30  17  58 VRB7      29.67S WCI  23
BALTIMORE      MOSUNNY   35  20  54 NW18G26   29.78R WCI  24
WASHINGTON DC  PTSUNNY   36  21  55 NW17G24   29.83R WCI  25

$$


USA.gov is the U.S. government's official web portal to all federal, state and local government web resources and services.